KN6RO Weather Reports


time (UTC)temp
F
wind
direction
speed
knots
gust
knots
rain 1hr
in
rain 24hr
in
rain mn
in
humidity
%
barometer
mb
20260506044006 65 19 0.0 0.9 0.00 0.00 0.00 51 1015.1
20260506043506 65 3 0.0 0.9 0.00 0.00 0.00 51 1015.4
20260506043011 65 3 0.0 0.9 0.00 0.00 0.00 51 1015.5
20260506042507 65 3 0.0 0.9 0.00 0.00 0.00 51 1015.5
20260506042007 65 338 0.0 0.9 0.00 0.00 0.00 51 1015.4
20260506041518 65 341 0.0 0.9 0.00 0.00 0.00 52 1015.4
20260506041006 65 342 0.0 0.9 0.00 0.00 0.00 51 1015.4
20260506040511 66 345 0.0 0.9 0.00 0.00 0.00 52 1015.3
20260506040020 66 345 0.0 0.9 0.00 0.00 0.00 51 1015.1
20260506035509 66 303 0.0 3.5 0.00 0.00 0.00 51 1015.1
20260506035014 66 303 0.0 3.5 0.00 0.00 0.00 51 1015.2
20260506034525 66 80 0.0 0.9 0.00 0.00 0.00 51 1015.2
20260506034010 66 1 0.0 0.9 0.00 0.00 0.00 51 1015.2
20260506033507 66 1 0.0 0.9 0.00 0.00 0.00 51 1015.3
20260506033008 66 1 0.0 0.9 0.00 0.00 0.00 51 1015.4
20260506032508 66 1 0.0 0.9 0.00 0.00 0.00 51 1015.4
20260506032007 66 1 0.0 0.9 0.00 0.00 0.00 52 1015.3
20260506031515 66 17 0.0 0.9 0.00 0.00 0.00 52 1015.4
20260506031009 66 16 0.0 0.9 0.00 0.00 0.00 52 1015.4
20260506030507 66 16 0.0 0.9 0.00 0.00 0.00 52 1015.3
20260506030019 66 16 0.0 0.9 0.00 0.00 0.00 52 1015.4
20260506025511 66 16 0.0 0.9 0.00 0.00 0.00 52 1015.6
20260506025010 66 16 0.0 0.9 0.00 0.00 0.00 52 1015.6
20260506024524 66 311 0.9 0.9 0.00 0.00 0.00 52 1015.5
20260506024007 66 66 0.0 0.9 0.00 0.00 0.00 52 1015.4
20260506023510 66 64 0.0 0.9 0.00 0.00 0.00 52 1015.3
20260506023024 66 65 0.0 0.9 0.00 0.00 0.00 52 1015.1
20260506022511 66 305 0.0 0.0 0.00 0.00 0.00 52 1015.1
20260506022008 66 304 0.0 0.9 0.00 0.00 0.00 52 1015.4
20260506021510 66 304 0.0 0.9 0.00 0.00 0.00 51 1015.3
20260506021007 66 303 0.0 0.9 0.00 0.00 0.00 51 1015.3
20260506020507 66 303 0.0 0.9 0.00 0.00 0.00 51 1015.3
20260506020030 66 303 0.0 0.9 0.00 0.00 0.00 51 1015.3
20260506015507 66 303 0.0 0.9 0.00 0.00 0.00 51 1015.2
20260506015008 66 303 0.0 0.9 0.00 0.00 0.00 51 1015.1
20260506014524 66 303 0.0 0.9 0.00 0.00 0.00 50 1015.1
20260506014007 66 303 0.0 0.9 0.00 0.00 0.00 51 1015.2
20260506013511 66 303 0.0 1.7 0.00 0.00 0.00 51 1015.1
20260506013023 66 302 0.0 1.7 0.00 0.00 0.00 52 1015.0
20260506012508 66 300 0.0 1.7 0.00 0.00 0.00 52 1015.0
20260506012014 66 334 0.0 0.9 0.00 0.00 0.00 52 1014.7
20260506011530 66 327 0.0 0.9 0.00 0.00 0.00 52 1014.6
20260506011012 66 327 0.0 0.9 0.00 0.00 0.00 52 1014.8
20260506010511 66 351 0.0 0.9 0.00 0.00 0.00 52 1014.7
20260506010017 66 8 0.0 0.9 0.00 0.00 0.00 51 1014.7
20260506005512 66 8 0.0 0.9 0.00 0.00 0.00 51 1014.7
20260506005007 67 340 0.9 0.9 0.00 0.00 0.00 51 1014.6
20260506004524 67 345 0.0 0.9 0.00 0.00 0.00 51 1014.7
20260506004009 67 303 0.0 0.9 0.00 0.00 0.00 51 1014.7
20260506003509 67 303 0.0 1.7 0.00 0.00 0.00 51 1014.7
20260506003022 67 310 0.0 1.7 0.00 0.00 0.00 51 1014.8
20260506002510 67 16 0.0 1.7 0.00 0.00 0.00 52 1014.7
20260506002010 67 295 0.0 0.9 0.00 0.00 0.00 52 1014.7
20260506001524 67 86 0.0 0.9 0.00 0.00 0.00 51 1014.6
20260506001011 67 86 0.0 0.9 0.00 0.00 0.00 52 1014.6
20260506000507 68 86 0.0 0.0 0.00 0.00 0.00 51 1014.6
20260506000042 68 86 0.0 0.0 0.00 0.00 0.00 50 1014.8
20260505235511 68 86 0.0 0.9 0.00 0.00 0.00 50 1014.8
20260505235009 68 86 0.0 0.9 0.00 0.00 0.00 49 1014.9
20260505234513 69 86 0.0 0.9 0.00 0.00 0.00 49 1014.9
20260505234006 69 86 0.0 0.9 0.00 0.00 0.00 48 1014.9
20260505233507 69 86 0.0 0.0 0.00 0.00 0.00 48 1014.9
20260505233021 69 86 0.0 0.9 0.00 0.00 0.00 48 1014.8
20260505232508 69 86 0.0 0.9 0.00 0.00 0.00 48 1014.9
20260505232009 69 86 0.0 0.0 0.00 0.00 0.00 48 1014.8
20260505231529 70 86 0.0 0.9 0.00 0.00 0.00 47 1014.9
20260505231008 70 86 0.0 0.9 0.00 0.00 0.00 48 1015.0
20260505230510 70 86 0.0 0.9 0.00 0.00 0.00 47 1015.0
20260505230040 70 86 0.0 0.9 0.00 0.00 0.00 48 1014.9
20260505225507 70 86 0.0 0.9 0.00 0.00 0.00 46 1014.9
20260505225012 70 86 0.0 0.9 0.00 0.00 0.00 46 1014.8
20260505224528 70 92 0.0 0.9 0.00 0.00 0.00 46 1014.9
20260505224010 71 91 0.0 0.9 0.00 0.00 0.00 46 1015.0
20260505223509 71 91 0.0 0.9 0.00 0.00 0.00 46 1015.0
20260505223017 71 91 0.0 0.9 0.00 0.00 0.00 44 1015.1
20260505222511 71 91 0.0 0.9 0.00 0.00 0.00 46 1015.1
20260505222013 71 91 0.0 0.9 0.00 0.00 0.00 48 1015.2
20260505221523 71 92 0.0 1.7 0.00 0.00 0.00 45 1015.1
20260505221008 71 37 0.0 1.7 0.00 0.00 0.00 46 1015.1
20260505220508 71 50 0.0 1.7 0.00 0.00 0.00 47 1015.2
20260505220024 71 39 0.0 1.7 0.00 0.00 0.00 48 1015.1
20260505215510 71 6 0.0 1.7 0.00 0.00 0.00 43 1014.9
20260505215011 72 30 0.0 1.7 0.00 0.00 0.00 42 1014.6
20260505214528 72 162 0.0 1.7 0.00 0.00 0.00 41 1014.8
20260505214007 72 79 0.0 0.9 0.00 0.00 0.00 40 1014.9
20260505213512 72 37 0.0 2.6 0.00 0.00 0.00 45 1015.1
20260505213030 72 251 0.0 3.5 0.00 0.00 0.00 41 1014.9
20260505212509 72 103 0.9 3.5 0.00 0.00 0.00 42 1014.8
20260505212013 72 252 0.9 3.5 0.00 0.00 0.00 43 1014.9
20260505211531 72 91 0.0 2.6 0.00 0.00 0.00 43 1014.9
20260505211006 72 44 0.9 1.7 0.00 0.00 0.00 42 1015.1
20260505210508 72 109 0.0 2.6 0.00 0.00 0.00 42 1015.0
20260505210020 72 98 0.9 2.6 0.00 0.00 0.00 41 1015.0
20260505203510 72 94 0.0 1.7 0.00 0.00 0.00 45 1015.1
20260505203028 73 89 0.0 3.5 0.00 0.00 0.00 45 1015.3
20260505202509 73 90 0.9 3.5 0.00 0.00 0.00 41 1015.1
20260505201533 73 75 0.0 3.5 0.00 0.00 0.00 42 1015.4
20260505201007 73 113 0.9 3.5 0.00 0.00 0.00 41 1015.3
20260505200508 73 244 0.9 3.5 0.00 0.00 0.00 42 1015.4
20260505200030 73 156 0.9 2.6 0.00 0.00 0.00 43 1015.5
20260505195508 73 57 0.0 3.5 0.00 0.00 0.00 41 1015.5
20260505195010 74 56 0.0 3.5 0.00 0.00 0.00 42 1015.5
20260505194528 74 96 0.9 2.6 0.00 0.00 0.00 40 1015.5
20260505194012 74 252 0.9 2.6 0.00 0.00 0.00 38 1015.6
20260505193514 75 20 0.0 1.7 0.00 0.00 0.00 40 1015.7
20260505192510 75 14 0.0 3.5 0.00 0.00 0.00 44 1015.7
20260505192010 75 28 0.9 5.2 0.00 0.00 0.00 44 1015.7
20260505191514 75 107 1.7 5.2 0.00 0.00 0.00 40 1015.8
20260505191007 76 68 0.9 4.3 0.00 0.00 0.00 45 1016.0
20260505190506 76 99 0.9 4.3 0.00 0.00 0.00 43 1016.1
20260505190015 76 250 0.9 4.3 0.00 0.00 0.00 42 1016.1
20260505185507 76 68 0.9 2.6 0.00 0.00 0.00 44 1016.0
20260505185008 75 82 0.9 2.6 0.00 0.00 0.00 40 1016.0
20260505184526 76 94 0.9 2.6 0.00 0.00 0.00 37 1016.1
20260505184007 76 252 0.9 2.6 0.00 0.00 0.00 41 1016.2
20260505183511 76 276 0.9 3.5 0.00 0.00 0.00 37 1016.1
20260505183024 76 49 0.9 3.5 0.00 0.00 0.00 40 1016.2
20260505182506 76 86 0.9 3.5 0.00 0.00 0.00 37 1016.2
20260505182018 77 110 1.7 5.2 0.00 0.00 0.00 38 1016.5
20260505181527 76 85 0.9 5.2 0.00 0.00 0.00 41 1016.5
20260505181008 76 125 0.9 3.5 0.00 0.00 0.00 39 1016.6
20260505180511 76 68 0.9 3.5 0.00 0.00 0.00 41 1016.5
20260505180026 77 14 0.9 2.6 0.00 0.00 0.00 42 1016.6
20260505175507 77 13 0.9 7.8 0.00 0.00 0.00 41 1016.7
20260505175009 76 32 0.9 7.8 0.00 0.00 0.00 39 1017.0
20260505174532 76 91 1.7 7.8 0.00 0.00 0.00 45 1016.9
20260505174010 75 74 0.9 4.3 0.00 0.00 0.00 45 1017.1
20260505173506 74 278 0.9 4.3 0.00 0.00 0.00 45 1017.1
20260505173022 74 103 1.7 4.3 0.00 0.00 0.00 45 1017.1
20260505172510 74 51 0.9 3.5 0.00 0.00 0.00 48 1017.1
20260505172010 74 104 0.9 3.5 0.00 0.00 0.00 45 1017.2
20260505171532 74 60 0.9 3.5 0.00 0.00 0.00 43 1017.3
20260505171007 75 37 1.7 2.6 0.00 0.00 0.00 44 1017.3
20260505170509 75 75 0.9 2.6 0.00 0.00 0.00 42 1017.4
20260505170028 76 71 0.9 3.5 0.00 0.00 0.00 44 1017.3
20260505165507 76 108 0.9 3.5 0.00 0.00 0.00 41 1017.2
20260505165013 75 193 0.9 2.6 0.00 0.00 0.00 46 1017.2
20260505164528 75 241 0.9 3.5 0.00 0.00 0.00 42 1017.2
20260505164007 74 99 0.9 4.3 0.00 0.00 0.00 45 1017.2
20260505163506 74 34 0.9 4.3 0.00 0.00 0.00 43 1017.2
20260505163021 74 257 1.7 3.5 0.00 0.00 0.00 43 1017.2
20260505162507 74 244 0.9 3.5 0.00 0.00 0.00 41 1017.4
20260505162007 74 124 2.6 4.3 0.00 0.00 0.00 40 1017.3
20260505161524 74 33 1.7 4.3 0.00 0.00 0.00 42 1017.4
20260505161011 75 160 0.9 2.6 0.00 0.00 0.00 40 1017.5
20260505160513 75 54 0.9 2.6 0.00 0.00 0.00 38 1017.4
20260505153036 73 141 0.9 2.6 0.00 0.00 0.00 44 1017.5
20260505152507 73 223 0.9 2.6 0.00 0.00 0.00 46 1017.4
20260505152011 73 108 0.9 1.7 0.00 0.00 0.00 47 1017.5
20260505151522 72 44 0.9 1.7 0.00 0.00 0.00 51 1017.6
20260505151007 72 63 0.0 3.5 0.00 0.00 0.00 48 1017.7
20260505150509 71 116 0.9 3.5 0.00 0.00 0.00 52 1017.7
20260505140504 66 37 0.9 1.7 0.00 0.00 0.00 57 1017.5
20260505125007 61 83 0.0 0.9 0.00 0.00 0.00 58 1016.6
20260505124508 61 90 0.0 0.9 0.00 0.00 0.00 59 1016.6
20260505124007 61 91 0.0 0.9 0.00 0.00 0.00 57 1016.5
20260505123503 62 90 0.0 0.9 0.00 0.00 0.00 59 1016.5
20260505123007 62 91 0.0 0.9 0.00 0.00 0.00 59 1016.5
20260505122505 62 91 0.0 0.9 0.00 0.00 0.00 59 1016.6
20260505122008 62 90 0.0 1.7 0.00 0.00 0.00 58 1016.5
20260505121508 62 90 0.0 1.7 0.00 0.00 0.00 57 1016.3
20260505121006 63 86 0.0 0.9 0.00 0.00 0.00 59 1016.3
20260505120508 64 41 0.0 0.9 0.00 0.00 0.00 58 1016.4
20260505120008 64 41 0.0 0.9 0.00 0.00 0.00 53 1016.4
20260505115505 62 41 0.0 0.9 0.00 0.00 0.00 54 1016.5
20260505115006 61 355 0.0 0.9 0.00 0.00 0.00 56 1016.4
20260505114512 60 355 0.0 0.9 0.00 0.00 0.00 59 1016.3
20260505114005 59 355 0.0 0.9 0.00 0.00 0.00 61 1016.2
20260505113505 58 355 0.0 0.9 0.00 0.00 0.00 59 1016.0
20260505113011 58 249 0.0 0.9 0.00 0.00 0.00 58 1015.9
20260505112510 58 248 0.0 0.0 0.00 0.00 0.00 59 1015.9
20260505112003 57 248 0.0 0.9 0.00 0.00 0.00 60 1015.8
20260505111508 57 248 0.0 0.9 0.00 0.00 0.00 59 1015.7
20260505111006 57 248 0.0 0.9 0.00 0.00 0.00 59 1015.7
20260505110508 56 248 0.0 0.9 0.00 0.00 0.00 59 1015.8
20260505102007 56 252 0.0 0.9 0.00 0.00 0.00 60 1015.5
20260505101510 56 96 0.0 0.9 0.00 0.00 0.00 59 1015.6
20260505101006 56 94 0.0 0.9 0.00 0.00 0.00 57 1015.7
20260505100506 57 56 0.0 0.9 0.00 0.00 0.00 57 1015.9
20260505100011 57 56 0.0 0.9 0.00 0.00 0.00 58 1015.9
20260505095510 57 56 0.0 0.9 0.00 0.00 0.00 56 1016.0
20260505095011 57 56 0.0 0.9 0.00 0.00 0.00 56 1015.7
20260505094511 57 66 0.0 0.9 0.00 0.00 0.00 56 1015.8
20260505094006 57 66 0.0 0.9 0.00 0.00 0.00 56 1015.9
20260505093506 57 65 0.0 0.9 0.00 0.00 0.00 57 1015.8
20260505093013 57 233 0.0 0.9 0.00 0.00 0.00 56 1015.8
20260505092507 57 233 0.0 1.7 0.00 0.00 0.00 56 1015.9
20260505092007 58 36 0.0 1.7 0.00 0.00 0.00 56 1015.9
20260505091515 58 247 0.0 0.9 0.00 0.00 0.00 55 1015.9
20260505091007 58 248 0.0 0.9 0.00 0.00 0.00 55 1015.9
20260505090507 58 139 0.0 0.9 0.00 0.00 0.00 55 1015.9
20260505090012 58 140 0.0 0.9 0.00 0.00 0.00 55 1016.0
20260505085508 58 256 0.0 0.9 0.00 0.00 0.00 55 1016.0
20260505085006 58 311 0.0 0.9 0.00 0.00 0.00 55 1016.0
20260505084510 58 308 0.0 0.9 0.00 0.00 0.00 55 1016.0
20260505084005 58 338 0.0 0.9 0.00 0.00 0.00 55 1016.1
20260505083507 58 353 0.0 0.9 0.00 0.00 0.00 55 1016.1
20260505083014 58 304 0.9 0.9 0.00 0.00 0.00 55 1016.1
20260505082507 58 302 0.0 0.9 0.00 0.00 0.00 55 1016.1
20260505082010 58 327 0.0 1.7 0.00 0.00 0.00 56 1016.1
20260505081521 58 327 0.0 1.7 0.00 0.00 0.00 56 1016.0
20260505081008 58 314 0.0 0.9 0.00 0.00 0.00 57 1016.0
20260505080512 57 321 0.0 0.9 0.00 0.00 0.00 57 1016.1
20260505080006 57 307 0.0 0.9 0.00 0.00 0.00 58 1016.0
20260505075502 57 250 0.0 0.9 0.00 0.00 0.00 58 1015.9
20260505075003 57 250 0.0 0.9 0.00 0.00 0.00 58 1016.0
20260505074505 57 250 0.0 0.9 0.00 0.00 0.00 58 1016.0
20260505074004 57 250 0.0 0.9 0.00 0.00 0.00 58 1016.1
20260505073507 57 250 0.0 0.9 0.00 0.00 0.00 57 1016.1
20260505073012 58 250 0.0 0.9 0.00 0.00 0.00 58 1016.1
20260505072507 58 250 0.0 0.9 0.00 0.00 0.00 57 1016.1
20260505072007 58 250 0.0 0.9 0.00 0.00 0.00 57 1016.1
20260505071517 58 252 0.0 0.9 0.00 0.00 0.00 57 1016.1
20260505071007 58 252 0.0 0.9 0.00 0.00 0.00 57 1016.1
20260505070510 58 253 0.0 0.9 0.00 0.00 0.00 56 1016.0
20260505070016 58 253 0.0 0.0 0.00 0.00 0.00 55 1016.0
20260505065507 59 253 0.0 0.9 0.00 0.00 0.00 55 1016.1
20260505065008 59 253 0.0 0.9 0.00 0.00 0.00 54 1016.1
20260505064504 59 253 0.0 0.9 0.00 0.00 0.00 54 1016.1
20260505064007 59 253 0.0 0.9 0.00 0.00 0.00 54 1016.1
20260505063504 59 253 0.0 0.9 0.00 0.00 0.00 54 1016.1
20260505063008 59 253 0.0 0.9 0.00 0.00 0.00 54 1016.1
20260505062507 59 253 0.0 0.0 0.00 0.00 0.00 54 1016.2
20260505062008 59 253 0.0 0.9 0.00 0.00 0.00 55 1016.2
20260505061509 59 253 0.0 0.9 0.00 0.00 0.00 56 1016.2
20260505061007 59 253 0.0 0.9 0.00 0.00 0.00 54 1016.2
20260505060510 59 253 0.0 0.9 0.00 0.00 0.00 54 1016.3
20260505060018 59 253 0.0 0.9 0.00 0.00 0.00 54 1016.3
20260505055509 59 288 0.0 0.9 0.00 0.00 0.00 54 1016.4
20260505055010 59 310 0.0 0.9 0.00 0.00 0.00 53 1016.5
20260505054528 59 288 0.0 0.9 0.00 0.00 0.00 53 1016.5
20260505054008 59 288 0.0 1.7 0.00 0.00 0.00 54 1016.5
20260505053513 59 245 0.0 1.7 0.00 0.00 0.00 55 1016.5
20260505053005 59 253 0.0 0.9 0.00 0.00 0.00 53 1016.5
20260505052504 60 314 0.0 0.9 0.00 0.00 0.00 54 1016.5
20260505052004 60 314 0.0 0.9 0.00 0.00 0.00 52 1016.5
20260505051511 60 328 0.0 0.9 0.00 0.00 0.00 52 1016.5
20260505051009 60 316 0.0 0.9 0.00 0.00 0.00 52 1016.5
20260505050508 60 310 0.0 0.9 0.00 0.00 0.00 52 1016.5